This is the latest recevied weather packets stored in our database for station/object DO9LL-1. If no packets are shown the sender has not sent any weather packets the latest 10 day(s).
| Time | Temp. | Humidity | Pressure | Rain* | Wind** | Luminosity | Snow |
|---|---|---|---|---|---|---|---|
| 1777561041 | 20° C | 28% | 1026.5 hPa | 0 mm | - | - | - |
| 1777560438 | 20° C | 28% | 1026.5 hPa | 0 mm | - | - | - |
| 1777559855 | 20° C | 28% | 1026.6 hPa | 0 mm | - | - | - |
| 1777559251 | 19.44° C | 27% | 1026.6 hPa | 0 mm | - | - | - |
| 1777558647 | 20° C | 27% | 1026.8 hPa | 0 mm | - | - | - |
| 1777558043 | 19.44° C | 26% | 1026.9 hPa | 0 mm | - | - | - |
| 1777557440 | 19.44° C | 26% | 1027 hPa | 0 mm | - | - | - |
| 1777556836 | 20° C | 27% | 1027.1 hPa | 0 mm | - | - | - |
| 1777556253 | 19.44° C | 27% | 1027.1 hPa | 0 mm | - | - | - |
| 1777555649 | 19.44° C | 27% | 1027.3 hPa | 0 mm | - | - | - |
| 1777555046 | 19.44° C | 28% | 1027.5 hPa | 0 mm | - | - | - |
| 1777554443 | 19.44° C | 29% | 1027.7 hPa | 0 mm | - | - | - |
| 1777553841 | 18.89° C | 28% | 1027.7 hPa | 0 mm | - | - | - |
| 1777553256 | 18.33° C | 29% | 1027.6 hPa | 0 mm | - | - | - |
| 1777552652 | 18.89° C | 29% | 1027.7 hPa | 0 mm | - | - | - |
| 1777552053 | 18.33° C | 28% | 1028 hPa | 0 mm | - | - | - |
| 1777551445 | 18.33° C | 29% | 1028.1 hPa | 0 mm | - | - | - |
| 1777550841 | 17.78° C | 29% | 1028.1 hPa | 0 mm | - | - | - |
| 1777550237 | 17.78° C | 29% | 1028.1 hPa | 0 mm | - | - | - |
| 1777549654 | 17.22° C | 29% | 1028.1 hPa | 0 mm | - | - | - |
| 1777549050 | 17.22° C | 30% | 1028.2 hPa | 0 mm | - | - | - |
| 1777548452 | 17.22° C | 29% | 1028.1 hPa | 0 mm | - | - | - |
| 1777547844 | 17.22° C | 31% | 1028.3 hPa | 0 mm | - | - | - |
| 1777547242 | 16.67° C | 29% | 1028.3 hPa | 0 mm | - | - | - |
| 1777546637 | 16.67° C | 27% | 1028.5 hPa | 0 mm | - | - | - |
* Rain latest hour (hover to see other rain measurements)
** Current wind speed in m/s (hover to see current wind gust speed)